Location: Peebles
(55.6412°N, 3.1714°W)
Time: 14:25:03
(UTC+01:00)

Cosmos 1680 Rocket - Pass Details

Date: 26 September 2021
Orbit: 759 x 781 km, 74.1° (Epoch: 17 October)

Event Time Altitude Azimuth Distance (km) Brightness Sun altitude
Rises 20:42:18 0° 332° (NNW) 3,251 7.5 -14.9°
Reaches altitude 10° 20:44:41 10° 334° (NNW) 2,324 6.7 -15.2°
Maximum altitude 20:49:58 72° 59° (ENE) 817 3.5 -15.9°
Enters shadow 20:53:19 23° 141° (SE) 1,605 4.7 -16.4°
